Hourly Data Report for November 01, 2004

TORONTO CITY
ONTARIO

43°40'00.000" N
79°24'00.000" W
112.50 m
6158355
71508
XTO

Download Data

Hourly Data (November 2004)
Hourly Data Report for November 1, 2004
TIME
LST
Temp Definition
°C
Dew Point Definition
°C
Rel Hum Definition
%
Precip. Amount Definition
mm

Wind Dir Definition
10's deg

Wind Spd Definition
km/h
Visibility Definition
km
Stn Press Definition
kPa
Hmdx Definition


Wind Chill Definition


Weather Definition


00:00 8.9 4.5 74   LegendMM LegendMM LegendMM 100.19     LegendNANA
01:00 8.7 4.5 75   LegendMM LegendMM LegendMM 100.26     LegendNANA
02:00 8.2 4.6 78   LegendMM LegendMM LegendMM 100.30     LegendNANA
03:00 7.8 4.4 79   LegendMM LegendMM LegendMM 100.34     LegendNANA
04:00 7.4 4.5 82   LegendMM LegendMM LegendMM 100.42     LegendNANA
05:00 7.1 4.0 81   LegendMM LegendMM LegendMM 100.48     LegendNANA
06:00 7.2 4.2 81   LegendMM LegendMM LegendMM 100.58     LegendNANA
07:00 7.1 4.4 83   LegendMM LegendMM LegendMM 100.68     LegendNANA
08:00 7.4 4.2 80   LegendMM LegendMM LegendMM 100.80     LegendNANA
09:00 7.5 3.2 74   LegendMM LegendMM LegendMM 100.80     LegendNANA
10:00 7.9 2.7 70   LegendMM LegendMM LegendMM 100.83     LegendNANA
11:00 8.9 2.6 65   LegendMM LegendMM LegendMM 100.83     LegendNANA
12:00 9.0 2.7 65   LegendMM LegendMM LegendMM 100.80     LegendNANA
13:00 11.2 3.6 59   LegendMM LegendMM LegendMM 100.78     LegendNANA
14:00 10.3 2.1 57   LegendMM LegendMM LegendMM 100.71     LegendNANA
15:00 9.3 3.1 65   LegendMM LegendMM LegendMM 100.71     LegendNANA
16:00 8.7 3.3 69   LegendMM LegendMM LegendMM 100.76     LegendNANA
17:00 8.4 3.2 70   LegendMM LegendMM LegendMM 100.77     LegendNANA
18:00 8.4 3.2 70   LegendMM LegendMM LegendMM 100.76     LegendNANA
19:00 8.4 2.4 66   LegendMM LegendMM LegendMM 100.77     LegendNANA
20:00 8.1 2.7 69   LegendMM LegendMM LegendMM 100.74     LegendNANA
21:00 8.0 2.8 70   LegendMM LegendMM LegendMM 100.70     LegendNANA
22:00 8.3 3.0 69   LegendMM LegendMM LegendMM 100.69     LegendNANA
23:00 8.6 4.0 73   LegendMM LegendMM LegendMM 100.60     LegendNANA

Notes on Data Quality.

Legend

  • E = Estimated
  • M = Missing
  • NA = Not Available*
  • [empty] = Indicates an unobserved value
Date modified: